Weather Roundup
Issued by NWS Chicago, IL

Home | Current Version | Previous Version | Graphics & Text | Print | Product List | Glossary On
Versions: 1 2 3 4 5 6 7 8 9 10 11 12 13 14 15 16 17 18 19 20 21 22 23 24 25 26 27 28 29 30 31 32 33 34 35 36 37 38 39 40 41 42 43 44 45 46 47 48 49 50
000
NZUS59 KLOT 312158
HRRLOT

CHICAGO AREA WEATHER ROUNDUP
NATIONAL WEATHER SERVICE CHICAGO/ROMEOVILLE IL
500 PM CDT THU JUL 31 2014

NOTE: "FAIR" INDICATES FEW OR NO CLOUDS BELOW 12,000 FEET WITH NO
SIGNIFICANT WEATHER AND/OR OBSTRUCTIONS TO VISIBILITY.

* THESE STATIONS ARE NOT UNDER NWS QUALITY CONTROL. THEY ALSO MAY NOT
  REPORT WEATHER SUCH AS PRECIPITATION OR FOG.

ILZ005-006-012>014-019>023-312300-
NORTHEAST ILLINOIS

CITY           SKY/WX    TMP DP  RH WIND       PRES   REMARKS
OHARE          MOSUNNY   83  54  36 W14       30.01F HX  82
MIDWAY         MOSUNNY   84  57  39 W14G21    30.01F HX  83
AURORA         SUNNY     80  59  48 W9        30.03F HX  81
WAUKEGAN       MOSUNNY   81  56  42 W10G18    30.00S HX  81
DUPAGE AIRPORT MOSUNNY   81  57  43 W13G20    30.02F HX  81
WHEELING       MOSUNNY   83  54  36 W16G23    30.02F HX  82
NORTHERLY IS     N/A     81  53  37 W6          N/A  HX  80
$$

WIZ051-052-058>065-066-070>072-312300-
SOUTHEAST WISCONSIN

CITY           SKY/WX    TMP DP  RH WIND       PRES   REMARKS
MILWAUKEE      PTSUNNY   82  55  39 SW13      29.99S HX  81
KENOSHA*       MOSUNNY   81  59  47 W12       30.00F HX  81
RACINE*        MOSUNNY   81  58  45 W8        30.01S HX  81
WAUKESHA       MOSUNNY   79  54  41 W9        30.00S
$$

INZ001>003-010>013-019-020-312300-
NORTHWEST INDIANA

CITY           SKY/WX    TMP DP  RH WIND       PRES   REMARKS
GARY*          PTSUNNY   82  59  44 W12       30.02F HX  82
MICHIGAN CITY* NOT AVBL
RENSSELAER*    NOT AVBL
VALPARAISO     MOSUNNY   80  60  50 SW12      30.04S HX  81
$$

LMZ740>746-312300-
SOUTHERN LAKE MICHIGAN

STATION/POSITION TIME  SKY/WX   TEMP WIND        PRES    VSBY
                                AIR  DIR/SP/G
                 (UTC)          (F)  (DEG/KT/KT) (MB)    (MI)
HARRISON CRIB    2100            79  270/ 13/ 20   N/A
BURNHAM HARBOR   2100            82  250/  7/ 13   N/A
CALUMET HARBOR   2100            81  230/  7/ 10 1015.1F
BURNS HARBOR     NOT AVBL
MICHIGAN CITY    2100            76  240/  6/  7   N/A
$$

ABBREVIATIONS USED IN REMARKS
   TC - TEMPERATURE IN CELSIUS
  WCI - WIND CHILL INDEX
   HX - HEAT INDEX
  VSB - VISIBILITY
$$



USA.gov is the U.S. government's official web portal to all federal, state and local government web resources and services.